Find Local Weather

World > North America > United States > North Dakota

Napoleon, North Dakota Regional Weather

Lat: 46.51N, Lon: 99.77W
Wx Zone: NDZ047
Feedback

Napoleon, ND Regional Weather

Expires:201905251400;;436568
ASUS43 KBIS 251331
RWRND 
NORTH DAKOTA REGIONAL WEATHER ROUNDUP
NATIONAL WEATHER SERVICE EASTERN NORTH DAKOTA/GRAND FORKS ND
800 AM CDT SAT MAY 25 2019

  NOTE: "FAIR" INDICATES FEW OR NO CLOUDS BELOW 12,000 FEET WITH NO
  SIGNIFICANT WEATHER AND/OR OBSTRUCTIONS TO VISIBILITY.


NDZ022-023-025-028>030-036>039-047>053-251400-
...SOUTHEAST NORTH DAKOTA...
  
CITY           SKY/WX    TMP DP  RH WIND       PRES   REMARKS
JAMESTOWN      CLOUDY    48  48 100 N15       29.84R                  
FARGO          CLOUDY    51  49  92 N10       29.79R                  
WAHPETON       CLOUDY    52  45  76 W17       29.81R                  
$$
  

SKY/WX - Weather  TMP - Temperature  DP - Dew Point  RH - Relative Humidity
WIND - Wind Direction/Speed PRES - Barometric Pressure VSB - Visibility
WCI - Wind Chill Index E13G22 Wind - East Wind 13 mph/Gusts of 22 mph